星链-2723 (STARLINK-2723 )

导读 | 星芒AI

STARLINK-2723 是 SpaceX Starlink 项目中的一颗低轨道通信卫星,旨在为全球用户提供高速互联网服务。该卫星于2023年发射,运行在约550公里高度的近地轨道上,采用先进推进系统和激光通信技术,以提升网络连接效率与稳定性。作为 Starlink 卫星群的一部分,它支持全球偏远地区的宽带接入,推动全球互联网普及。

基本信息
目录编号:
48476
目录名称:
STARLINK-2723
国际标识:
2021-040BA
轨道中心:
EARTH
卫星名称:
星链-2723
卫星全名:
星链-2723 (STARLINK-2723 )
卫星状态:
已陨落 最后检测时间 2024-12-25
发射日期:
2021-05-09 UTC
国别 :
美国 (US)
星等 :
--
轨道信息
数据来源 国际轨道数据
星历时间: 2024-12-26T04:48:06+0800
轨道信息已过期308天
半长轴: 6523.121km
偏心率: 0.0001686
轨道倾角: 53.025°
近地点辐角 211.296°
升交点赤经 336.195°
平近点角 253.102°
近地点: 143.886km
远地点: 146.086km
周期: 87.386分钟
每日圈数: 16.478577
详细信息
固有亮度:
5
最大亮度:
2.5
卫星平台:
Starlink V1.0
覆盖范围:
全球
运营商:
太空探索技术公司
运营商所在国:
美国
制造商(研发单位):
太空探索技术公司
制造商所在国:
美国
使用方式:
暂无
卫星简介
星链(Starlink)计划是由太空探索技术公司(SpaceX)提出的一个巨型低轨卫星互联网星座项目,计划在2019年至2024年间在太空搭建由约1.2万颗卫星组成的“星链”网络,其中1584颗将部署在地球上空550千米处的近地轨道,并从2020年开始工作。该卫星仍在工作。